FW1289 Weather Reports


time (UTC)temp
C
wind
direction
speed
KPH
gust
KPH
rain 1hr
cm
rain 24hr
cm
rain mn
cm
humidity
%
barometer
mb
20260905224524 33 304 0.0 0.0 0.00 0.25 0.25 58 1008.7
20260905223034 34 13 0.0 1.6 0.00 0.25 0.25 57 1008.7
20260905221537 35 315 0.0 0.0 0.00 0.25 0.25 55 1008.6
20260905220026 35 271 0.0 0.0 0.00 0.25 0.25 53 1008.6
20260905214521 35 271 0.0 0.0 0.00 0.25 0.25 53 1008.7
20260905213021 34 271 0.0 0.0 0.00 0.25 0.25 56 1008.8
20260905211536 33 271 0.0 0.0 0.00 0.25 0.25 56 1008.8
20260905210018 33 229 0.0 0.0 0.00 0.25 0.25 58 1009.0
20260905204517 32 227 0.0 0.0 0.00 0.25 0.25 59 1009.2
20260905203014 31 229 0.0 0.0 0.00 0.25 0.25 67 1009.4
20260905201512 30 221 0.0 0.0 0.00 0.25 0.25 68 1009.5
20260905200014 29 203 0.0 0.0 0.00 0.25 0.25 71 1009.8
20260905194509 27 64 0.0 0.0 0.25 0.25 0.25 75 1009.9
20260905193008 26 49 0.0 0.0 0.25 0.25 0.25 79 1010.1
20260905191508 26 118 0.0 0.0 0.25 0.25 0.25 79 1010.3
20260905190007 28 113 0.0 1.6 0.25 0.25 0.25 70 1010.8
20260905184506 33 277 0.0 8.0 0.00 0.00 0.00 56 1010.2
20260905183006 35 271 0.0 0.0 0.00 0.00 0.00 50 1010.1
20260905181504 36 227 0.0 0.0 0.00 0.00 0.00 50 1010.1
20260905180001 35 215 0.0 0.0 0.00 0.00 0.00 50 1010.2
20260905174604 35 281 0.0 0.0 0.00 0.00 0.00 51 1010.3
20260905173057 35 288 0.0 0.0 0.00 0.00 0.00 52 1010.6
20260905171605 35 220 0.0 0.0 0.00 0.00 0.00 52 1010.6
20260905170058 35 350 0.0 0.0 0.00 0.00 0.00 52 1010.7
20260905164552 34 163 0.0 0.0 0.00 0.00 0.00 52 1011.0
20260905163049 34 333 0.0 0.0 0.00 0.00 0.00 53 1011.1
20260905161548 34 269 0.0 0.0 0.00 0.00 0.00 53 1011.0
20260905160051 33 334 0.0 0.0 0.00 0.00 0.00 56 1011.0
20260905154552 33 300 0.0 0.0 0.00 0.00 0.00 58 1011.0
20260905153042 33 290 0.0 0.0 0.00 0.00 0.00 56 1011.0
20260905151541 33 260 0.0 0.0 0.00 0.00 0.00 60 1010.9
20260905150037 32 261 0.0 0.0 0.00 0.00 0.00 65 1011.1
20260905144546 31 258 0.0 0.0 0.00 0.00 0.00 67 1011.1
20260905143030 31 277 0.0 0.0 0.00 0.00 0.00 68 1011.1
20260905141526 30 277 0.0 0.0 0.00 0.00 0.00 71 1011.1
20260905140027 29 223 0.0 0.0 0.00 0.00 0.00 71 1011.1
20260905134517 28 236 0.0 0.0 0.00 0.00 0.00 77 1011.3
20260905133013 27 223 0.0 0.0 0.00 0.00 0.00 80 1011.4
20260905131510 26 223 0.0 0.0 0.00 0.00 0.00 81 1011.4
20260905130006 25 223 0.0 0.0 0.00 0.00 0.00 85 1011.6
20260905124506 24 223 0.0 0.0 0.00 0.00 0.00 87 1011.3
20260905123003 24 223 0.0 0.0 0.00 0.00 0.00 87 1011.3
20260905121504 23 223 0.0 0.0 0.00 0.00 0.00 87 1011.2
20260905120101 23 223 0.0 0.0 0.00 0.00 0.00 86 1011.1
20260905114610 23 223 0.0 0.0 0.00 0.00 0.00 85 1011.1
20260905113058 24 223 0.0 0.0 0.00 0.00 0.00 85 1011.0
20260905111607 24 223 0.0 0.0 0.00 0.00 0.00 85 1010.9
20260905110100 24 223 0.0 0.0 0.00 0.00 0.00 84 1010.8
20260905104554 24 223 0.0 0.0 0.00 0.00 0.00 85 1010.9
20260905103053 24 223 0.0 0.0 0.00 0.00 0.00 84 1010.9
20260905101552 24 223 0.0 0.0 0.00 0.00 0.00 84 1010.8
20260905100052 24 223 0.0 0.0 0.00 0.00 0.00 84 1010.8
20260905094601 24 223 0.0 0.0 0.00 0.00 0.00 85 1010.7
20260905093051 24 223 0.0 0.0 0.00 0.00 0.00 85 1010.7
20260905091557 24 223 0.0 0.0 0.00 0.00 0.00 85 1010.4
20260905090048 24 223 0.0 0.0 0.00 0.00 0.00 85 1010.4
20260905084547 23 223 0.0 0.0 0.00 0.00 0.00 85 1010.5
20260905083046 23 223 0.0 0.0 0.00 0.00 0.00 85 1010.5
20260905081553 24 223 0.0 0.0 0.00 0.00 0.00 85 1010.6
20260905080054 24 223 0.0 0.0 0.00 0.00 0.00 84 1010.8
20260905074541 24 223 0.0 0.0 0.00 0.00 0.00 84 1010.7
20260905073046 25 223 0.0 0.0 0.00 0.00 0.00 84 1010.8
20260905071548 25 223 0.0 0.0 0.00 0.00 0.00 84 1010.7
20260905070046 25 223 0.0 0.0 0.00 0.00 0.00 83 1010.7
20260905064539 25 223 0.0 0.0 0.00 0.00 0.00 84 1010.7
20260905063037 25 223 0.0 0.0 0.00 0.00 0.00 84 1010.7
20260905061553 25 223 0.0 0.0 0.00 0.00 0.00 84 1011.0
20260905060034 25 223 0.0 0.0 0.00 0.00 0.00 83 1010.9
20260905054532 25 223 0.0 0.0 0.00 0.00 0.00 83 1010.8
20260905053031 25 223 0.0 0.0 0.00 0.00 0.00 82 1010.9
20260905051539 25 223 0.0 0.0 0.00 0.00 0.00 82 1011.0
20260905050028 25 223 0.0 0.0 0.00 0.00 0.00 82 1011.0
20260905044528 26 223 0.0 0.0 0.00 0.00 0.00 82 1011.0
20260905043045 26 223 0.0 0.0 0.00 0.00 0.00 80 1011.1
20260905041526 26 223 0.0 0.0 0.00 0.00 0.00 81 1011.2
20260905040031 26 223 0.0 0.0 0.00 0.00 0.00 80 1011.3
20260905034529 26 223 0.0 0.0 0.00 0.00 0.00 80 1011.3
20260905033024 26 223 0.0 0.0 0.00 0.00 0.00 78 1011.2
20260905031523 26 223 0.0 0.0 0.00 0.00 0.00 78 1011.1
20260905030023 27 223 0.0 0.0 0.00 0.00 0.00 77 1011.1
20260905024522 27 223 0.0 0.0 0.00 0.00 0.00 77 1011.1
20260905023022 27 223 0.0 0.0 0.00 0.00 0.00 76 1010.8
20260905021521 27 223 0.0 0.0 0.00 0.00 0.00 76 1010.7
20260905020021 28 223 0.0 0.0 0.00 0.00 0.00 73 1010.7
20260905014521 28 223 0.0 0.0 0.00 0.00 0.00 73 1010.6
20260905013022 28 223 0.0 0.0 0.00 0.00 0.00 70 1010.4
20260905011520 29 223 0.0 0.0 0.00 0.00 0.00 70 1010.3
20260905010021 30 223 0.0 0.0 0.00 0.00 0.00 67 1010.3
20260905004519 31 223 0.0 0.0 0.00 0.00 0.00 64 1010.2
20260905003022 31 223 0.0 0.0 0.00 0.00 0.00 62 1010.2
20260905001519 32 223 0.0 0.0 0.00 0.00 0.00 59 1010.2
20260905000030 33 223 0.0 0.0 0.00 0.00 0.00 56 1010.1
20260904234516 33 223 0.0 0.0 0.00 0.00 0.00 53 1010.0
20260904233016 34 223 0.0 0.0 0.00 0.00 0.00 51 1009.9
20260904231515 34 229 0.0 0.0 0.00 0.00 0.00 51 1009.7
20260904230015 35 229 0.0 0.0 0.00 0.00 0.00 49 1009.8